N56AT PADK-PADU

Flight info

Callsign N56AT
Flight time 1h 17m
Altitude 37000
Route DCT
Aircraft STAR/L-DFHILM3ORUVWY/W

Departure

Time 2026-04-14 21:19
Airport Adak Airport (PADK)

Arrival

Time 2026-04-14 22:36
Airport Tom Madsen (Dutch Harbor) Airport (PADU)
Time Latitude Longitude Altitude Speed Heading
2026-04-14 21:04 51.87343 -176.64570 11 ft 0 kts
2026-04-14 21:14 51.87504 -176.64611 11 ft 18 kts 13°
2026-04-14 21:14 51.87677 -176.64520 12 ft 34 kts 18°
2026-04-14 21:14 51.87904 -176.64391 12 ft 28 kts 15°
2026-04-14 21:14 51.88064 -176.64340 12 ft 30 kts 359°
2026-04-14 21:15 51.88287 -176.64327 12 ft 34 kts 15°
2026-04-14 21:15 51.88453 -176.63985 13 ft 44 kts 60°
2026-04-14 21:15 51.88612 -176.63530 13 ft 46 kts 61°
2026-04-14 21:15 51.88745 -176.63144 11 ft 32 kts 62°
2026-04-14 21:16 51.88734 -176.62999 12 ft 0 kts 123°
2026-04-14 21:18 51.88806 -176.62946 11 ft 29 kts 293°
2026-04-14 21:18 51.88765 -176.63105 11 ft 16 kts 238°
2026-04-14 21:18 51.88631 -176.63482 13 ft 59 kts 241°
2026-04-14 21:18 51.88371 -176.64232 12 ft 93 kts 241°
2026-04-14 21:19 51.88031 -176.65321 147 ft 119 kts 239°
2026-04-14 21:19 51.87612 -176.66537 424 ft 130 kts 237°
2026-04-14 21:19 51.87160 -176.67783 1082 ft 125 kts 238°
2026-04-14 21:19 51.86521 -176.68589 1803 ft 120 kts 189°
2026-04-14 21:20 51.85785 -176.68001 2473 ft 129 kts 129°
2026-04-14 21:20 51.85690 -176.66540 3078 ft 141 kts 77°
2026-04-14 21:20 51.86091 -176.65075 3683 ft 146 kts 51°
2026-04-14 21:20 51.86843 -176.63948 4300 ft 149 kts 40°
2026-04-14 21:21 51.87646 -176.62848 4904 ft 155 kts 38°
2026-04-14 21:21 51.88432 -176.61657 5502 ft 159 kts 48°
2026-04-14 21:21 51.89103 -176.60201 6145 ft 163 kts 57°
2026-04-14 21:21 51.89687 -176.58608 6748 ft 166 kts 60°
2026-04-14 21:22 51.90230 -176.56930 7356 ft 169 kts 66°
2026-04-14 21:22 51.90671 -176.55151 7985 ft 171 kts 73°
2026-04-14 21:22 51.91096 -176.53331 8634 ft 174 kts 72°
2026-04-14 21:22 51.91566 -176.51507 9301 ft 176 kts 71°
2026-04-14 21:23 51.92046 -176.49659 9979 ft 179 kts 73°
2026-04-14 21:23 51.92511 -176.47778 10657 ft 181 kts 74°
2026-04-14 21:23 51.92983 -176.45870 11356 ft 184 kts 73°
2026-04-14 21:23 51.93473 -176.43936 12066 ft 187 kts 73°
2026-04-14 21:24 51.93968 -176.41974 12773 ft 190 kts 73°
2026-04-14 21:24 51.94460 -176.40001 13474 ft 193 kts 74°
2026-04-14 21:24 51.94974 -176.37941 14148 ft 196 kts 74°
2026-04-14 21:24 51.95488 -176.35897 14757 ft 200 kts 75°
2026-04-14 21:25 51.96015 -176.33787 15367 ft 203 kts 75°
2026-04-14 21:25 51.96546 -176.31651 15985 ft 206 kts 76°
2026-04-14 21:25 51.97089 -176.29472 16589 ft 210 kts 76°
2026-04-14 21:25 51.97643 -176.27253 17198 ft 214 kts 77°
2026-04-14 21:26 51.98202 -176.25002 17811 ft 217 kts 77°
2026-04-14 21:26 51.98773 -176.22705 18422 ft 221 kts 78°
2026-04-14 21:26 51.99351 -176.20375 18945 ft 225 kts 78°
2026-04-14 21:26 51.99937 -176.18004 19466 ft 229 kts 78°
2026-04-14 21:27 52.00537 -176.15587 20023 ft 233 kts 78°
2026-04-14 21:27 52.01147 -176.13126 20530 ft 236 kts 78°
2026-04-14 21:27 52.01764 -176.10633 21051 ft 241 kts 78°
2026-04-14 21:27 52.02385 -176.08092 21564 ft 244 kts 78°
2026-04-14 21:28 52.03033 -176.05508 22038 ft 248 kts 78°
2026-04-14 21:28 52.03667 -176.02901 22642 ft 249 kts 79°
2026-04-14 21:28 52.04308 -176.00287 23216 ft 255 kts 78°
2026-04-14 21:28 52.04976 -175.97597 23764 ft 259 kts 78°
2026-04-14 21:29 52.05645 -175.94863 24288 ft 261 kts 79°
2026-04-14 21:29 52.06317 -175.92112 24824 ft 263 kts 78°
2026-04-14 21:29 52.06999 -175.89334 25358 ft 265 kts 78°
2026-04-14 21:29 52.07681 -175.86544 25870 ft 267 kts 78°
2026-04-14 21:30 52.08369 -175.83721 26382 ft 269 kts 78°
2026-04-14 21:30 52.09062 -175.80883 26878 ft 271 kts 78°
2026-04-14 21:30 52.09758 -175.78023 27382 ft 273 kts 78°
2026-04-14 21:30 52.10459 -175.75141 27881 ft 275 kts 78°
2026-04-14 21:31 52.11165 -175.72234 28368 ft 277 kts 78°
2026-04-14 21:31 52.11875 -175.69305 28862 ft 279 kts 78°
2026-04-14 21:31 52.12590 -175.66354 29328 ft 282 kts 78°
2026-04-14 21:31 52.13312 -175.63370 29791 ft 284 kts 78°
2026-04-14 21:32 52.14035 -175.60376 30212 ft 286 kts 78°
2026-04-14 21:32 52.14764 -175.57352 30585 ft 287 kts 78°
2026-04-14 21:32 52.15491 -175.54349 30870 ft 290 kts 78°
2026-04-14 21:32 52.16225 -175.51282 31229 ft 291 kts 78°
2026-04-14 21:33 52.16966 -175.48197 31584 ft 292 kts 78°
2026-04-14 21:33 52.17711 -175.45100 31922 ft 293 kts 78°
2026-04-14 21:33 52.18454 -175.41993 32239 ft 294 kts 78°
2026-04-14 21:33 52.19200 -175.38877 32544 ft 295 kts 78°
2026-04-14 21:34 52.19944 -175.35760 32898 ft 295 kts 77°
2026-04-14 21:34 52.20688 -175.32643 33182 ft 295 kts 77°
2026-04-14 21:34 52.21424 -175.29551 33439 ft 296 kts 77°
2026-04-14 21:34 52.22171 -175.26410 33685 ft 298 kts 77°
2026-04-14 21:35 52.22922 -175.23250 33924 ft 299 kts 77°
2026-04-14 21:35 52.23672 -175.20085 34128 ft 299 kts 77°
2026-04-14 21:35 52.24425 -175.16908 34313 ft 300 kts 77°
2026-04-14 21:35 52.25175 -175.13735 34492 ft 300 kts 77°
2026-04-14 21:36 52.25922 -175.10569 34671 ft 300 kts 77°
2026-04-14 21:36 52.26673 -175.07387 34837 ft 300 kts 77°
2026-04-14 21:36 52.27421 -175.04210 34965 ft 300 kts 77°
2026-04-14 21:36 52.28164 -175.01054 35081 ft 301 kts 77°
2026-04-14 21:37 52.28911 -174.97852 35232 ft 302 kts 77°
2026-04-14 21:37 52.29663 -174.94653 35383 ft 302 kts 77°
2026-04-14 21:37 52.30415 -174.91444 35530 ft 302 kts 77°
2026-04-14 21:37 52.31165 -174.88230 35673 ft 302 kts 77°
2026-04-14 21:38 52.31914 -174.85022 35809 ft 302 kts 76°
2026-04-14 21:38 52.32663 -174.81805 35941 ft 302 kts 77°
2026-04-14 21:38 52.33402 -174.78628 36067 ft 302 kts 76°
2026-04-14 21:38 52.34149 -174.75414 36189 ft 302 kts 76°
2026-04-14 21:39 52.34895 -174.72197 36307 ft 303 kts 76°
2026-04-14 21:39 52.35642 -174.68971 36421 ft 303 kts 76°
2026-04-14 21:39 52.36387 -174.65749 36530 ft 303 kts 76°
2026-04-14 21:39 52.37131 -174.62525 36639 ft 303 kts 76°
2026-04-14 21:40 52.37875 -174.59300 36775 ft 301 kts 76°
2026-04-14 21:40 52.38610 -174.56106 36897 ft 300 kts 76°
2026-04-14 21:40 52.40091 -174.49648 37002 ft 308 kts 76°
2026-04-14 21:41 52.41621 -174.42971 37006 ft 318 kts 76°
2026-04-14 21:41 52.43190 -174.36096 37003 ft 326 kts 75°
2026-04-14 21:42 52.44783 -174.29094 37003 ft 332 kts 75°
2026-04-14 21:42 52.46407 -174.21929 37004 ft 337 kts 75°
2026-04-14 21:43 52.48045 -174.14676 37003 ft 341 kts 75°
2026-04-14 21:43 52.49695 -174.07350 37005 ft 344 kts 75°
2026-04-14 21:44 52.51342 -174.00007 36979 ft 345 kts 76°
2026-04-14 21:44 52.53002 -173.92576 37008 ft 347 kts 76°
2026-04-14 21:45 52.54655 -173.85157 37004 ft 348 kts 76°
2026-04-14 21:45 52.56318 -173.77667 37010 ft 349 kts 76°
2026-04-14 21:46 52.57977 -173.70168 37002 ft 350 kts 76°
2026-04-14 21:46 52.59637 -173.62630 37020 ft 351 kts 76°
2026-04-14 21:47 52.61296 -173.55080 37008 ft 351 kts 76°
2026-04-14 21:47 52.62949 -173.47523 36968 ft 351 kts 76°
2026-04-14 21:48 52.64596 -173.39954 37000 ft 351 kts 76°
2026-04-14 21:48 52.66241 -173.32384 36998 ft 351 kts 76°
2026-04-14 21:49 52.67884 -173.24796 36999 ft 352 kts 77°
2026-04-14 21:49 52.69522 -173.17194 36999 ft 352 kts 77°
2026-04-14 21:50 52.71146 -173.09632 36999 ft 352 kts 77°
2026-04-14 21:50 52.72778 -173.02006 37000 ft 352 kts 77°
2026-04-14 21:51 52.74403 -172.94379 36968 ft 352 kts 77°
2026-04-14 21:51 52.76010 -172.86808 36993 ft 352 kts 77°
2026-04-14 21:52 52.77625 -172.79176 36996 ft 352 kts 77°
2026-04-14 21:52 52.79236 -172.71533 37013 ft 353 kts 77°
2026-04-14 21:53 52.80847 -172.63861 37004 ft 353 kts 77°
2026-04-14 21:53 52.82452 -172.56187 36996 ft 353 kts 77°
2026-04-14 21:54 52.84054 -172.48501 36998 ft 353 kts 77°
2026-04-14 21:54 52.85648 -172.40823 36967 ft 352 kts 77°
2026-04-14 21:55 52.87227 -172.33182 36993 ft 353 kts 77°
2026-04-14 21:55 52.88818 -172.25452 37004 ft 356 kts 77°
2026-04-14 21:56 52.90422 -172.17642 37000 ft 359 kts 77°
2026-04-14 21:56 52.92020 -172.09822 37001 ft 357 kts 78°
2026-04-14 21:57 52.93595 -172.02083 37004 ft 356 kts 78°
2026-04-14 21:57 52.95174 -171.94296 37004 ft 355 kts 78°
2026-04-14 21:58 52.96743 -171.86529 36961 ft 354 kts 78°
2026-04-14 21:58 52.98298 -171.78787 37004 ft 354 kts 78°
2026-04-14 21:59 52.99595 -171.72329 37006 ft 355 kts 79°
2026-04-14 21:59 53.01151 -171.64547 37006 ft 355 kts 78°
2026-04-14 22:00 53.02716 -171.56776 37004 ft 355 kts 78°
2026-04-14 22:00 53.04303 -171.48988 37006 ft 357 kts 77°
2026-04-14 22:01 53.05912 -171.41178 37007 ft 356 kts 77°
2026-04-14 22:01 53.07527 -171.33444 37009 ft 356 kts 77°
2026-04-14 22:02 53.09167 -171.25686 37001 ft 355 kts 77°
2026-04-14 22:02 53.10824 -171.17941 37015 ft 355 kts 77°
2026-04-14 22:03 53.12507 -171.10166 37016 ft 358 kts 76°
2026-04-14 22:03 53.14213 -171.02353 37016 ft 359 kts 76°
2026-04-14 22:04 53.15938 -170.94538 37042 ft 359 kts 76°
2026-04-14 22:04 53.17671 -170.86777 37027 ft 359 kts 75°
2026-04-14 22:05 53.19433 -170.78976 37019 ft 359 kts 75°
2026-04-14 22:05 53.21209 -170.71204 37015 ft 358 kts 75°
2026-04-14 22:06 53.23000 -170.63460 37027 ft 358 kts 75°
2026-04-14 22:06 53.24811 -170.55713 37029 ft 358 kts 74°
2026-04-14 22:07 53.26640 -170.47977 37033 ft 358 kts 74°
2026-04-14 22:07 53.28478 -170.40281 37027 ft 359 kts 74°
2026-04-14 22:08 53.30347 -170.32538 37028 ft 359 kts 73°
2026-04-14 22:08 53.32235 -170.24803 37036 ft 359 kts 73°
2026-04-14 22:09 53.34138 -170.17084 37023 ft 359 kts 73°
2026-04-14 22:09 53.36063 -170.09359 37033 ft 360 kts 72°
2026-04-14 22:10 53.38009 -170.01625 37035 ft 360 kts 72°
2026-04-14 22:10 53.39960 -169.93950 37034 ft 360 kts 72°
2026-04-14 22:11 53.41942 -169.86231 37034 ft 361 kts 71°
2026-04-14 22:11 53.43946 -169.78506 37042 ft 361 kts 71°
2026-04-14 22:12 53.45966 -169.70793 37042 ft 361 kts 71°
2026-04-14 22:12 53.48007 -169.63078 37042 ft 361 kts 71°
2026-04-14 22:13 53.49054 -169.59125 36497 ft 379 kts 71°
2026-04-14 22:13 53.50142 -169.54997 35988 ft 394 kts 71°
2026-04-14 22:13 53.51266 -169.50707 35492 ft 407 kts 72°
2026-04-14 22:13 53.52417 -169.46300 35014 ft 418 kts 72°
2026-04-14 22:14 53.53590 -169.41797 34529 ft 423 kts 72°
2026-04-14 22:14 53.54779 -169.37231 34060 ft 428 kts 73°
2026-04-14 22:14 53.55959 -169.32695 33521 ft 432 kts 72°
2026-04-14 22:14 53.57168 -169.28051 32983 ft 434 kts 72°
2026-04-14 22:15 53.58386 -169.23375 32448 ft 436 kts 72°
2026-04-14 22:15 53.59607 -169.18691 31931 ft 438 kts 72°
2026-04-14 22:15 53.60835 -169.13991 31434 ft 438 kts 72°
2026-04-14 22:15 53.62059 -169.09321 30937 ft 429 kts 72°
2026-04-14 22:16 53.63254 -169.04796 30449 ft 417 kts 71°
2026-04-14 22:16 53.64430 -169.00382 29926 ft 406 kts 71°
2026-04-14 22:16 53.65581 -168.96098 29358 ft 395 kts 71°
2026-04-14 22:16 53.66712 -168.91923 28808 ft 386 kts 71°
2026-04-14 22:17 53.67821 -168.87860 28263 ft 378 kts 71°
2026-04-14 22:17 53.68903 -168.83921 27739 ft 372 kts 71°
2026-04-14 22:17 53.69989 -168.79991 27215 ft 366 kts 71°
2026-04-14 22:17 53.71061 -168.76135 26702 ft 361 kts 71°
2026-04-14 22:18 53.72129 -168.72315 26219 ft 357 kts 71°
2026-04-14 22:18 53.73190 -168.68540 25725 ft 353 kts 71°
2026-04-14 22:18 53.74246 -168.64804 25237 ft 350 kts 71°
2026-04-14 22:18 53.75294 -168.61109 24758 ft 347 kts 71°
2026-04-14 22:19 53.76336 -168.57456 24288 ft 336 kts 71°
2026-04-14 22:19 53.78305 -168.50705 23310 ft 321 kts 71°
2026-04-14 22:19 53.79302 -168.47288 22754 ft 331 kts 70°
2026-04-14 22:20 53.80341 -168.43679 22179 ft 360 kts 69°
2026-04-14 22:20 53.81465 -168.39722 21651 ft 383 kts 69°
2026-04-14 22:20 53.82637 -168.35571 21133 ft 399 kts 69°
2026-04-14 22:20 53.83842 -168.31290 20623 ft 404 kts 69°
2026-04-14 22:21 53.85056 -168.26986 20123 ft 406 kts 68°
2026-04-14 22:21 53.86272 -168.22680 19632 ft 404 kts 68°
2026-04-14 22:21 53.87481 -168.18419 19149 ft 396 kts 68°
2026-04-14 22:21 53.88663 -168.14282 18674 ft 386 kts 68°
2026-04-14 22:22 53.89829 -168.10227 18180 ft 379 kts 68°
2026-04-14 22:22 53.90981 -168.06243 17653 ft 373 kts 68°
2026-04-14 22:22 53.92117 -168.02336 17217 ft 365 kts 68°
2026-04-14 22:22 53.93236 -167.98510 16820 ft 359 kts 67°
2026-04-14 22:23 53.94341 -167.94751 16435 ft 354 kts 67°
2026-04-14 22:23 53.95427 -167.91076 16053 ft 350 kts 67°
2026-04-14 22:23 53.96517 -167.87401 15673 ft 347 kts 67°
2026-04-14 22:23 53.97602 -167.83757 15297 ft 345 kts 66°
2026-04-14 22:24 53.98694 -167.80104 14903 ft 350 kts 66°
2026-04-14 22:24 53.99666 -167.76281 14536 ft 352 kts 80°
2026-04-14 22:24 53.99951 -167.72183 14174 ft 348 kts 96°
2026-04-14 22:24 53.99711 -167.68126 13818 ft 344 kts 106°
2026-04-14 22:25 53.99295 -167.64108 13409 ft 345 kts 108°
2026-04-14 22:25 53.98830 -167.60110 13008 ft 345 kts 109°
2026-04-14 22:25 53.98346 -167.56128 12621 ft 339 kts 109°
2026-04-14 22:25 53.97958 -167.52233 12327 ft 333 kts 103°
2026-04-14 22:26 53.97746 -167.48396 12060 ft 326 kts 103°
2026-04-14 22:26 53.97432 -167.44623 11778 ft 321 kts 104°
2026-04-14 22:26 53.97171 -167.40870 11499 ft 318 kts 103°
2026-04-14 22:26 53.96897 -167.37156 11222 ft 315 kts 104°
2026-04-14 22:27 53.96614 -167.33454 10946 ft 314 kts 103°
2026-04-14 22:27 53.96348 -167.29777 10674 ft 313 kts 104°
2026-04-14 22:27 53.96066 -167.26130 10410 ft 310 kts 102°
2026-04-14 22:27 53.95808 -167.22560 10140 ft 306 kts 102°
2026-04-14 22:28 53.95537 -167.18986 9854 ft 304 kts 103°
2026-04-14 22:28 53.95267 -167.15446 9557 ft 302 kts 102°
2026-04-14 22:28 53.95002 -167.11922 9271 ft 299 kts 103°
2026-04-14 22:28 53.94725 -167.08445 9082 ft 293 kts 103°
2026-04-14 22:29 53.94458 -167.05040 8896 ft 291 kts 103°
2026-04-14 22:29 53.94234 -167.01626 8688 ft 292 kts 101°
2026-04-14 22:29 53.94062 -166.98158 8352 ft 295 kts 101°
2026-04-14 22:29 53.93864 -166.94746 8243 ft 288 kts 102°
2026-04-14 22:30 53.93644 -166.91314 7416 ft 307 kts 102°
2026-04-14 22:30 53.93507 -166.87691 6978 ft 301 kts 98°
2026-04-14 22:30 53.93441 -166.84233 6566 ft 285 kts 98°
2026-04-14 22:30 53.93437 -166.80937 6282 ft 273 kts 94°
2026-04-14 22:31 53.93525 -166.77759 5964 ft 264 kts 93°
2026-04-14 22:31 53.93575 -166.74688 5489 ft 260 kts 94°
2026-04-14 22:31 53.93566 -166.71649 4959 ft 259 kts 97°
2026-04-14 22:31 53.93472 -166.68593 4606 ft 248 kts 101°
2026-04-14 22:32 53.93333 -166.65846 4715 ft 224 kts 102°
2026-04-14 22:32 53.93165 -166.63376 4657 ft 195 kts 107°
2026-04-14 22:32 53.92987 -166.61171 4179 ft 182 kts 106°
2026-04-14 22:32 53.92918 -166.59018 3757 ft 187 kts 96°
2026-04-14 22:33 53.92996 -166.56829 3488 ft 183 kts 86°
2026-04-14 22:33 53.93624 -166.55008 3303 ft 184 kts 38°
2026-04-14 22:33 53.94771 -166.54438 3196 ft 163 kts 347°
2026-04-14 22:33 53.95716 -166.55137 3155 ft 140 kts 309°
2026-04-14 22:34 53.96141 -166.56506 2863 ft 135 kts 270°
2026-04-14 22:34 53.95928 -166.58068 2466 ft 139 kts 233°
2026-04-14 22:34 53.95130 -166.58889 2199 ft 140 kts 187°
2026-04-14 22:34 53.94154 -166.58563 1891 ft 146 kts 163°
2026-04-14 22:35 53.93205 -166.57980 1216 ft 145 kts 167°
2026-04-14 22:35 53.92352 -166.57297 937 ft 125 kts 168°
2026-04-14 22:35 53.91553 -166.56767 483 ft 127 kts 157°
2026-04-14 22:35 53.90824 -166.55940 137 ft 121 kts 143°
2026-04-14 22:36 53.90264 -166.55085 23 ft 99 kts 143°
2026-04-14 22:36 53.89828 -166.54388 16 ft 71 kts 135°
2026-04-14 22:36 53.89611 -166.54029 17 ft 12 kts 143°
2026-04-14 22:36 53.89562 -166.53960 17 ft 16 kts 116°
2026-04-14 22:37 53.89604 -166.53864 16 ft 10 kts 15°
2026-04-14 22:37 53.89646 -166.53858 15 ft 0 kts
2026-04-14 22:37 53.89662 -166.53860 16 ft 6 kts 349°
2026-04-14 22:37 53.89673 -166.53864 16 ft 0 kts 346°